sat.trackr.live / text

‹ back to catalog

KUIPER-00261

NORAD 67158 · 2025-301AB

PAYLOAD ACTIVE UNKNOWN

§ Identity

Operator
Country
US
Launch date
2025-12-16
Launch site
AFETR
Launch vehicle
Mass (kg)
RCS (m²)

External: N2YO · Heavens-Above · Gunter

§ Orbital elements

Epoch: 2026-05-25T00:42:59.936832Z

Period
97.30 min
Inclination
51.9009°
Eccentricity
0.0000633
Mean motion
14.79936868 rev/d
Perigee alt
629.1 km
Apogee alt
630.0 km
Semi-major
7,007.7 km
B*
-3.3568e-6
RAAN
93.0790°
Arg perigee
81.0019°
Mean anomaly
279.1015°
Rev number
2,496

§ Raw data

KUIPER-002611 67158U 25301AB  26145.02986038 -.00000247  00000+0 -33568-5 0  99962 67158  51.9009  93.0790 0000633  81.0019 279.1015 14.79936868 24969

JSON: /api/v1/satellites/67158 · /tle

For live sub-satellite position, see the globe view (requires WebGL).

§ Visibility from observer

Set your observer location to see the next 7 days of passes ≥ 10°. The values pass through the URL so the page stays shareable.

No JS? Fill the form by hand. The geolocation button needs JavaScript.